Year,Month,Day,Hour,Minute,Value (Times are PST for temperature in C)
2014,11,12,00,00,3.10
2014,11,12,00,01,3.10
2014,11,12,00,02,3.10
2014,11,12,00,03,3.00
2014,11,12,00,04,3.00
2014,11,12,00,05,3.00
2014,11,12,00,06,2.90
2014,11,12,00,07,2.90
2014,11,12,00,08,2.80
2014,11,12,00,09,2.80
2014,11,12,00,10,2.70
2014,11,12,00,11,2.70
2014,11,12,00,12,2.60
2014,11,12,00,13,2.60
2014,11,12,00,14,2.60
2014,11,12,00,15,2.70
2014,11,12,00,16,2.70
2014,11,12,00,17,2.70
2014,11,12,00,18,2.70
2014,11,12,00,19,2.70
2014,11,12,00,20,2.70
2014,11,12,00,21,2.70
2014,11,12,00,22,2.60
2014,11,12,00,23,2.60
2014,11,12,00,24,2.50
2014,11,12,00,25,2.50
2014,11,12,00,26,2.50
2014,11,12,00,27,2.40
2014,11,12,00,28,2.40
2014,11,12,00,29,2.30
2014,11,12,00,30,2.20
2014,11,12,00,31,2.20
2014,11,12,00,32,2.20
2014,11,12,00,33,2.10
2014,11,12,00,34,2.10
2014,11,12,00,35,2.10
2014,11,12,00,36,2.00
2014,11,12,00,37,1.90
2014,11,12,00,38,1.90
2014,11,12,00,39,1.90
2014,11,12,00,40,1.90
2014,11,12,00,41,1.90
2014,11,12,00,42,1.90
2014,11,12,00,43,1.90
2014,11,12,00,44,2.00
2014,11,12,00,45,2.00
2014,11,12,00,46,1.90
2014,11,12,00,47,1.90
2014,11,12,00,48,1.90
2014,11,12,00,49,1.90
2014,11,12,00,50,1.90
2014,11,12,00,51,1.90
2014,11,12,00,52,1.90
2014,11,12,00,53,1.90
2014,11,12,00,54,1.90
2014,11,12,00,55,1.90
2014,11,12,00,56,1.90
2014,11,12,00,57,1.90
2014,11,12,00,58,1.90
2014,11,12,00,59,1.90
2014,11,12,01,00,1.90
2014,11,12,01,01,1.90
2014,11,12,01,02,1.90
2014,11,12,01,03,1.90
2014,11,12,01,04,1.90
2014,11,12,01,05,1.90
2014,11,12,01,06,1.90
2014,11,12,01,07,1.90
2014,11,12,01,08,1.90
2014,11,12,01,09,1.90
2014,11,12,01,10,1.80
2014,11,12,01,11,1.80
2014,11,12,01,12,1.90
2014,11,12,01,13,1.90
2014,11,12,01,14,2.00
2014,11,12,01,15,2.00
2014,11,12,01,16,2.10
2014,11,12,01,17,2.10
2014,11,12,01,18,2.00
2014,11,12,01,19,2.00
2014,11,12,01,20,2.00
2014,11,12,01,21,2.00
2014,11,12,01,22,2.00
2014,11,12,01,23,1.90
2014,11,12,01,24,1.90
2014,11,12,01,25,1.90
2014,11,12,01,26,1.90
2014,11,12,01,27,1.90
2014,11,12,01,28,1.90
2014,11,12,01,29,1.90
2014,11,12,01,30,1.90
2014,11,12,01,31,1.90
2014,11,12,01,32,2.00
2014,11,12,01,33,2.00
2014,11,12,01,34,2.00
2014,11,12,01,35,2.10
2014,11,12,01,36,2.10
2014,11,12,01,37,2.00
2014,11,12,01,38,2.00
2014,11,12,01,39,2.00
2014,11,12,01,40,2.00
2014,11,12,01,41,1.90
2014,11,12,01,42,1.90
2014,11,12,01,43,1.90
2014,11,12,01,44,1.80
2014,11,12,01,45,1.80
2014,11,12,01,46,1.90
2014,11,12,01,47,1.90
2014,11,12,01,48,1.90
2014,11,12,01,49,1.90
2014,11,12,01,50,1.80
2014,11,12,01,51,1.80
2014,11,12,01,52,1.80
2014,11,12,01,53,1.80
2014,11,12,01,54,1.80
2014,11,12,01,55,1.90
2014,11,12,01,56,1.90
2014,11,12,01,57,1.90
2014,11,12,01,58,1.90
2014,11,12,01,59,1.80
2014,11,12,02,00,1.80
2014,11,12,02,01,1.80
2014,11,12,02,02,1.80
2014,11,12,02,03,1.90
2014,11,12,02,04,2.00
2014,11,12,02,05,2.10
2014,11,12,02,06,2.20
2014,11,12,02,07,2.30
2014,11,12,02,08,2.30
2014,11,12,02,09,2.30
2014,11,12,02,10,2.40
2014,11,12,02,11,2.40
2014,11,12,02,12,2.40
2014,11,12,02,13,2.50
2014,11,12,02,14,2.50
2014,11,12,02,15,2.50
2014,11,12,02,16,2.40
2014,11,12,02,17,2.40
2014,11,12,02,18,2.30
2014,11,12,02,19,2.30
2014,11,12,02,20,2.30
2014,11,12,02,21,2.30
2014,11,12,02,22,2.30
2014,11,12,02,23,2.20
2014,11,12,02,24,2.20
2014,11,12,02,25,2.20
2014,11,12,02,26,2.20
2014,11,12,02,27,2.20
2014,11,12,02,28,2.10
2014,11,12,02,29,2.10
2014,11,12,02,30,2.10
2014,11,12,02,31,2.10
2014,11,12,02,32,2.00
2014,11,12,02,33,2.00
2014,11,12,02,34,2.00
2014,11,12,02,35,2.00
2014,11,12,02,36,2.10
2014,11,12,02,37,2.10
2014,11,12,02,38,2.10
2014,11,12,02,39,2.10
2014,11,12,02,40,2.10
2014,11,12,02,41,2.10
2014,11,12,02,42,2.00
2014,11,12,02,43,2.00
2014,11,12,02,44,2.10
2014,11,12,02,45,2.00
2014,11,12,02,46,2.00
2014,11,12,02,47,2.00
2014,11,12,02,48,2.00
2014,11,12,02,49,2.00
2014,11,12,02,50,2.00
2014,11,12,02,51,2.00
2014,11,12,02,52,2.00
2014,11,12,02,53,2.00
2014,11,12,02,54,2.00
2014,11,12,02,55,2.00
2014,11,12,02,56,2.00
2014,11,12,02,57,2.00
2014,11,12,02,58,2.00
2014,11,12,02,59,2.00
2014,11,12,03,00,1.90
2014,11,12,03,01,1.90
2014,11,12,03,02,1.90
2014,11,12,03,03,1.90
2014,11,12,03,04,1.90
2014,11,12,03,05,1.90
2014,11,12,03,06,1.90
2014,11,12,03,07,2.00
2014,11,12,03,08,2.00
2014,11,12,03,09,2.00
2014,11,12,03,10,2.10
2014,11,12,03,11,2.10
2014,11,12,03,12,2.10
2014,11,12,03,13,2.10
2014,11,12,03,14,2.00
2014,11,12,03,15,2.00
2014,11,12,03,16,2.00
2014,11,12,03,17,1.90
2014,11,12,03,18,1.90
2014,11,12,03,19,1.90
2014,11,12,03,20,1.80
2014,11,12,03,21,1.80
2014,11,12,03,22,1.80
2014,11,12,03,23,1.70
2014,11,12,03,24,1.70
2014,11,12,03,25,1.70
2014,11,12,03,26,1.70
2014,11,12,03,27,1.70
2014,11,12,03,28,1.70
2014,11,12,03,29,1.70
2014,11,12,03,30,1.70
2014,11,12,03,31,1.70
2014,11,12,03,32,1.70
2014,11,12,03,33,1.70
2014,11,12,03,34,1.70
2014,11,12,03,35,1.70
2014,11,12,03,36,1.70
2014,11,12,03,37,1.70
2014,11,12,03,38,1.70
2014,11,12,03,39,1.70
2014,11,12,03,40,1.70
2014,11,12,03,41,1.80
2014,11,12,03,42,1.80
2014,11,12,03,43,1.80
2014,11,12,03,44,1.90
2014,11,12,03,45,1.90
2014,11,12,03,46,1.90
2014,11,12,03,47,1.90
2014,11,12,03,48,1.90
2014,11,12,03,49,1.80
2014,11,12,03,50,1.80
2014,11,12,03,51,1.80
2014,11,12,03,52,1.70
2014,11,12,03,53,1.70
2014,11,12,03,54,1.70
2014,11,12,03,55,1.70
2014,11,12,03,56,1.70
2014,11,12,03,57,1.70
2014,11,12,03,58,1.70
2014,11,12,03,59,1.70
2014,11,12,04,00,1.70
2014,11,12,04,01,1.70
2014,11,12,04,02,1.70
2014,11,12,04,03,1.70
2014,11,12,04,04,1.80
2014,11,12,04,05,1.80
2014,11,12,04,06,1.80
2014,11,12,04,07,1.90
2014,11,12,04,08,1.90
2014,11,12,04,09,1.90
2014,11,12,04,10,1.90
2014,11,12,04,11,1.80
2014,11,12,04,12,1.80
2014,11,12,04,13,1.80
2014,11,12,04,14,1.70
2014,11,12,04,15,1.70
2014,11,12,04,16,1.70
2014,11,12,04,17,1.70
2014,11,12,04,18,1.70
2014,11,12,04,19,1.80
2014,11,12,04,20,1.80
2014,11,12,04,21,1.80
2014,11,12,04,22,1.90
2014,11,12,04,23,1.90
2014,11,12,04,24,2.00
2014,11,12,04,25,2.10
2014,11,12,04,26,2.20
2014,11,12,04,27,2.20
2014,11,12,04,28,2.30
2014,11,12,04,29,2.40
2014,11,12,04,30,2.50
2014,11,12,04,31,2.70
2014,11,12,04,32,2.90
2014,11,12,04,33,3.00
2014,11,12,04,34,3.10
2014,11,12,04,35,3.20
2014,11,12,04,36,3.20
2014,11,12,04,37,3.20
2014,11,12,04,38,3.30
2014,11,12,04,39,3.30
2014,11,12,04,40,3.30
2014,11,12,04,41,3.30
2014,11,12,04,42,3.30
2014,11,12,04,43,3.30
2014,11,12,04,44,3.30
2014,11,12,04,45,3.30
2014,11,12,04,46,3.30
2014,11,12,04,47,3.20
2014,11,12,04,48,3.20
2014,11,12,04,49,3.20
2014,11,12,04,50,3.20
2014,11,12,04,51,3.20
2014,11,12,04,52,3.30
2014,11,12,04,53,3.30
2014,11,12,04,54,3.40
2014,11,12,04,55,3.40
2014,11,12,04,56,3.40
2014,11,12,04,57,3.40
2014,11,12,04,58,3.40
2014,11,12,04,59,3.40
2014,11,12,05,00,3.40
2014,11,12,05,01,3.40
2014,11,12,05,02,3.40
2014,11,12,05,03,3.40
2014,11,12,05,04,3.40
2014,11,12,05,05,3.40
2014,11,12,05,06,3.40
2014,11,12,05,07,3.40
2014,11,12,05,08,3.30
2014,11,12,05,09,3.30
2014,11,12,05,10,3.30
2014,11,12,05,11,3.30
2014,11,12,05,12,3.30
2014,11,12,05,13,3.30
2014,11,12,05,14,3.30
2014,11,12,05,15,3.40
2014,11,12,05,16,3.40
2014,11,12,05,17,3.40
2014,11,12,05,18,3.40
2014,11,12,05,19,3.40
2014,11,12,05,20,3.40
2014,11,12,05,21,3.40
2014,11,12,05,22,3.30
2014,11,12,05,23,3.30
2014,11,12,05,24,3.30
2014,11,12,05,25,3.20
2014,11,12,05,26,3.30
2014,11,12,05,27,3.30
2014,11,12,05,28,3.30
2014,11,12,05,29,3.30
2014,11,12,05,30,3.30
2014,11,12,05,31,3.30
2014,11,12,05,32,3.30
2014,11,12,05,33,3.30
2014,11,12,05,34,3.30
2014,11,12,05,35,3.30
2014,11,12,05,36,3.20
2014,11,12,05,37,3.20
2014,11,12,05,38,3.20
2014,11,12,05,39,3.20
2014,11,12,05,40,3.20
2014,11,12,05,41,3.20
2014,11,12,05,42,3.20
2014,11,12,05,43,3.30
2014,11,12,05,44,3.30
2014,11,12,05,45,3.30
2014,11,12,05,46,3.30
2014,11,12,05,47,3.30
2014,11,12,05,48,3.30
2014,11,12,05,49,3.30
2014,11,12,05,50,3.30
2014,11,12,05,51,3.30
2014,11,12,05,52,3.30
2014,11,12,05,53,3.30
2014,11,12,05,54,3.30
2014,11,12,05,55,3.20
2014,11,12,05,56,3.20
2014,11,12,05,57,3.20
2014,11,12,05,58,3.20
2014,11,12,05,59,3.20
2014,11,12,06,00,3.20
2014,11,12,06,01,3.20
2014,11,12,06,02,3.20
2014,11,12,06,03,3.20
2014,11,12,06,04,3.20
2014,11,12,06,05,3.20
2014,11,12,06,06,3.20
2014,11,12,06,07,3.20
2014,11,12,06,08,3.20
2014,11,12,06,09,3.20
2014,11,12,06,10,3.20
2014,11,12,06,11,3.20
2014,11,12,06,12,3.30
2014,11,12,06,13,3.30
2014,11,12,06,14,3.30
2014,11,12,06,15,3.30
2014,11,12,06,16,3.30
2014,11,12,06,17,3.30
2014,11,12,06,18,3.30
2014,11,12,06,19,3.30
2014,11,12,06,20,3.30
2014,11,12,06,21,3.20
2014,11,12,06,22,3.30
2014,11,12,06,23,3.30
2014,11,12,06,24,3.30
2014,11,12,06,25,3.20
2014,11,12,06,26,3.20
2014,11,12,06,27,3.30
2014,11,12,06,28,3.20
2014,11,12,06,29,3.20
2014,11,12,06,30,3.20
2014,11,12,06,31,3.20
2014,11,12,06,32,3.20
2014,11,12,06,33,3.20
2014,11,12,06,34,3.20
2014,11,12,06,35,3.20
2014,11,12,06,36,3.10
2014,11,12,06,37,3.10
2014,11,12,06,38,3.10
2014,11,12,06,39,3.10
2014,11,12,06,40,3.10
2014,11,12,06,41,3.10
2014,11,12,06,42,3.10
2014,11,12,06,43,3.10
2014,11,12,06,44,3.10
2014,11,12,06,45,3.00
2014,11,12,06,46,3.00
2014,11,12,06,47,3.00
2014,11,12,06,48,2.90
2014,11,12,06,49,2.90
2014,11,12,06,50,2.90
2014,11,12,06,51,2.90
2014,11,12,06,52,2.90
2014,11,12,06,53,2.80
2014,11,12,06,54,2.80
2014,11,12,06,55,2.80
2014,11,12,06,56,2.80
2014,11,12,06,57,2.80
2014,11,12,06,58,2.80
2014,11,12,06,59,2.90
2014,11,12,07,00,2.90
2014,11,12,07,01,2.90
2014,11,12,07,02,2.90
2014,11,12,07,03,2.90
2014,11,12,07,04,2.90
2014,11,12,07,05,2.90
2014,11,12,07,06,2.90
2014,11,12,07,07,2.90
2014,11,12,07,08,2.90
2014,11,12,07,09,2.90
2014,11,12,07,10,2.90
2014,11,12,07,11,2.90
2014,11,12,07,12,2.90
2014,11,12,07,13,2.90
2014,11,12,07,14,2.90
2014,11,12,07,15,2.90
2014,11,12,07,16,2.90
2014,11,12,07,17,2.90
2014,11,12,07,18,2.90
2014,11,12,07,19,2.90
2014,11,12,07,20,2.90
2014,11,12,07,21,2.90
2014,11,12,07,22,2.90
2014,11,12,07,23,2.90
2014,11,12,07,24,2.80
2014,11,12,07,25,2.80
2014,11,12,07,26,2.80
2014,11,12,07,27,2.80
2014,11,12,07,28,2.80
2014,11,12,07,29,2.80
2014,11,12,07,30,2.80
2014,11,12,07,31,2.80
2014,11,12,07,32,2.90
2014,11,12,07,33,2.90
2014,11,12,07,34,2.90
2014,11,12,07,35,2.90
2014,11,12,07,36,2.90
2014,11,12,07,37,2.90
2014,11,12,07,38,2.90
2014,11,12,07,39,2.90
2014,11,12,07,40,2.90
2014,11,12,07,41,2.90
2014,11,12,07,42,2.90
2014,11,12,07,43,2.90
2014,11,12,07,44,2.90
2014,11,12,07,45,2.90
2014,11,12,07,46,2.90
2014,11,12,07,47,2.90
2014,11,12,07,48,2.90
2014,11,12,07,49,2.90
2014,11,12,07,50,2.90
2014,11,12,07,51,2.90
2014,11,12,07,52,2.90
2014,11,12,07,53,2.90
2014,11,12,07,54,2.90
2014,11,12,07,55,2.90
2014,11,12,07,56,2.90
2014,11,12,07,57,2.90
2014,11,12,07,58,2.90
2014,11,12,07,59,3.00
2014,11,12,08,00,3.00
2014,11,12,08,01,3.00
2014,11,12,08,02,3.00
2014,11,12,08,03,3.00
2014,11,12,08,04,3.00
2014,11,12,08,05,3.00
2014,11,12,08,06,3.10
2014,11,12,08,07,3.10
2014,11,12,08,08,3.10
2014,11,12,08,09,3.10
2014,11,12,08,10,3.10
2014,11,12,08,11,3.10
2014,11,12,08,12,3.10
2014,11,12,08,13,3.10
2014,11,12,08,14,3.20
2014,11,12,08,15,3.20
2014,11,12,08,16,3.20
2014,11,12,08,17,3.20
2014,11,12,08,18,3.30
2014,11,12,08,19,3.30
2014,11,12,08,20,3.30
2014,11,12,08,21,3.30
2014,11,12,08,22,3.30
2014,11,12,08,23,3.30
2014,11,12,08,24,3.40
2014,11,12,08,25,3.40
2014,11,12,08,26,3.40
2014,11,12,08,27,3.40
2014,11,12,08,28,3.40
2014,11,12,08,29,3.40
2014,11,12,08,30,3.40
2014,11,12,08,31,3.40
2014,11,12,08,32,3.50
2014,11,12,08,33,3.50
2014,11,12,08,34,3.50
2014,11,12,08,35,3.60
2014,11,12,08,36,3.50
2014,11,12,08,37,3.50
2014,11,12,08,38,3.50
2014,11,12,08,39,3.50
2014,11,12,08,40,3.50
2014,11,12,08,41,3.40
2014,11,12,08,42,3.40
2014,11,12,08,43,3.40
2014,11,12,08,44,3.40
2014,11,12,08,45,3.50
2014,11,12,08,46,3.50
2014,11,12,08,47,3.50
2014,11,12,08,48,3.60
2014,11,12,08,49,3.60
2014,11,12,08,50,3.60
2014,11,12,08,51,3.60
2014,11,12,08,52,3.60
2014,11,12,08,53,3.60
2014,11,12,08,54,3.60
2014,11,12,08,55,3.60
2014,11,12,08,56,3.60
2014,11,12,08,57,3.60
2014,11,12,08,58,3.60
2014,11,12,08,59,3.70
2014,11,12,09,00,3.70
2014,11,12,09,01,3.70
2014,11,12,09,02,3.70
2014,11,12,09,03,3.80
2014,11,12,09,04,3.80
2014,11,12,09,05,3.80
2014,11,12,09,06,3.80
2014,11,12,09,07,3.80
2014,11,12,09,08,3.80
2014,11,12,09,09,3.80
2014,11,12,09,10,3.80
2014,11,12,09,11,3.80
2014,11,12,09,12,3.90
2014,11,12,09,13,3.90
2014,11,12,09,14,3.90
2014,11,12,09,15,3.90
2014,11,12,09,16,3.90
2014,11,12,09,17,3.90
2014,11,12,09,18,3.90
2014,11,12,09,19,3.90
2014,11,12,09,20,3.90
2014,11,12,09,21,4.00
2014,11,12,09,22,4.00
2014,11,12,09,23,4.00
2014,11,12,09,24,4.10
2014,11,12,09,25,4.10
2014,11,12,09,26,4.10
2014,11,12,09,27,4.20
2014,11,12,09,28,4.20
2014,11,12,09,29,4.20
2014,11,12,09,30,4.30
2014,11,12,09,31,4.30
2014,11,12,09,32,4.30
2014,11,12,09,33,4.40
2014,11,12,09,34,4.40
2014,11,12,09,35,4.40
2014,11,12,09,36,4.50
2014,11,12,09,37,4.60
2014,11,12,09,38,4.60
2014,11,12,09,39,4.60
2014,11,12,09,40,4.60
2014,11,12,09,41,4.70
2014,11,12,09,42,4.70
2014,11,12,09,43,4.70
2014,11,12,09,44,4.70
2014,11,12,09,45,4.80
2014,11,12,09,46,4.80
2014,11,12,09,47,4.80
2014,11,12,09,48,4.80
2014,11,12,09,49,4.80
2014,11,12,09,50,4.90
2014,11,12,09,51,4.90
2014,11,12,09,52,4.90
2014,11,12,09,53,5.00
2014,11,12,09,54,5.00
2014,11,12,09,55,5.00
2014,11,12,09,56,5.10
2014,11,12,09,57,5.10
2014,11,12,09,58,5.10
2014,11,12,09,59,5.20
2014,11,12,10,00,5.20
2014,11,12,10,01,5.20
2014,11,12,10,02,5.30
2014,11,12,10,03,5.30
2014,11,12,10,04,5.30
2014,11,12,10,05,5.30
2014,11,12,10,06,5.30
2014,11,12,10,07,5.40
2014,11,12,10,08,5.40
2014,11,12,10,09,5.40
2014,11,12,10,10,5.40
2014,11,12,10,11,5.40
2014,11,12,10,12,5.40
2014,11,12,10,13,5.50
2014,11,12,10,14,5.50
2014,11,12,10,15,5.50
2014,11,12,10,16,5.60
2014,11,12,10,17,5.60
2014,11,12,10,18,5.60
2014,11,12,10,19,5.70
2014,11,12,10,20,5.70
2014,11,12,10,21,5.70
2014,11,12,10,22,5.70
2014,11,12,10,23,5.70
2014,11,12,10,24,5.80
2014,11,12,10,25,5.80
2014,11,12,10,26,5.80
2014,11,12,10,27,5.80
2014,11,12,10,28,5.80
2014,11,12,10,29,5.80
2014,11,12,10,30,5.90
2014,11,12,10,31,5.90
2014,11,12,10,32,5.90
2014,11,12,10,33,5.90
2014,11,12,10,34,5.90
2014,11,12,10,35,6.00
2014,11,12,10,36,6.00
2014,11,12,10,37,6.00
2014,11,12,10,38,6.10
2014,11,12,10,39,6.10
2014,11,12,10,40,6.10
2014,11,12,10,41,6.10
2014,11,12,10,42,6.00
2014,11,12,10,43,6.00
2014,11,12,10,44,6.00
2014,11,12,10,45,6.00
2014,11,12,10,46,6.00
2014,11,12,10,47,6.00
2014,11,12,10,48,6.00
2014,11,12,10,49,6.10
2014,11,12,10,50,6.10
2014,11,12,10,51,6.10
2014,11,12,10,52,6.10
2014,11,12,10,53,6.20
2014,11,12,10,54,6.20
2014,11,12,10,55,6.20
2014,11,12,10,56,6.20
2014,11,12,10,57,6.20
2014,11,12,10,58,6.30
2014,11,12,10,59,6.30
2014,11,12,11,00,6.30
2014,11,12,11,01,6.30
2014,11,12,11,02,6.40
2014,11,12,11,03,6.40
2014,11,12,11,04,6.40
2014,11,12,11,05,6.50
2014,11,12,11,06,6.50
2014,11,12,11,07,6.60
2014,11,12,11,08,6.60
2014,11,12,11,09,6.60
2014,11,12,11,10,6.60
2014,11,12,11,11,6.60
2014,11,12,11,12,6.70
2014,11,12,11,13,6.70
2014,11,12,11,14,6.70
2014,11,12,11,15,6.70
2014,11,12,11,16,6.70
2014,11,12,11,17,6.70
2014,11,12,11,18,6.70
2014,11,12,11,19,6.80
2014,11,12,11,20,6.80
2014,11,12,11,21,6.80
2014,11,12,11,22,6.80
2014,11,12,11,23,6.90
2014,11,12,11,24,6.90
2014,11,12,11,25,6.90
2014,11,12,11,26,6.90
2014,11,12,11,27,7.00
2014,11,12,11,28,7.00
2014,11,12,11,29,7.00
2014,11,12,11,30,7.00
2014,11,12,11,31,7.00
2014,11,12,11,32,7.10
2014,11,12,11,33,7.10
2014,11,12,11,34,7.10
2014,11,12,11,35,7.20
2014,11,12,11,36,7.20
2014,11,12,11,37,7.20
2014,11,12,11,38,7.20
2014,11,12,11,39,7.20
2014,11,12,11,40,7.20
2014,11,12,11,41,7.20
2014,11,12,11,42,7.30
2014,11,12,11,43,7.30
2014,11,12,11,44,7.30
2014,11,12,11,45,7.40
2014,11,12,11,46,7.40
2014,11,12,11,47,7.40
2014,11,12,11,48,7.50
2014,11,12,11,49,7.50
2014,11,12,11,50,7.50
2014,11,12,11,51,7.60
2014,11,12,11,52,7.60
2014,11,12,11,53,7.60
2014,11,12,11,54,7.70
2014,11,12,11,55,7.70
2014,11,12,11,56,7.70
2014,11,12,11,57,7.70
2014,11,12,11,58,7.70
2014,11,12,11,59,7.70
2014,11,12,12,00,7.80
2014,11,12,12,01,7.80
2014,11,12,12,02,7.80
2014,11,12,12,03,7.80
2014,11,12,12,04,7.80
2014,11,12,12,05,7.80
2014,11,12,12,06,7.90
2014,11,12,12,07,7.90
2014,11,12,12,08,7.90
2014,11,12,12,09,8.00
2014,11,12,12,10,8.00
2014,11,12,12,11,8.00
2014,11,12,12,12,8.00
2014,11,12,12,13,8.00
2014,11,12,12,14,8.10
2014,11,12,12,15,8.10
2014,11,12,12,16,8.10
2014,11,12,12,17,8.00
2014,11,12,12,18,8.10
